Weather History for Asheville, NC

Change the Weather History Date:

Tuesday, August 17, 2010

  Actual Average Record
Temperature  
Mean Temperature 76 °F 73 °F  
Max Temperature 82 °F 83 °F 94 °F (1988)
Min Temperature 69 °F 63 °F 50 °F (1889)
Degree Days  
Heating Degree Days 0 0  
Month to date heating degree days 0 0  
Since 1 June heating degree days 0 14  
Since 1 July heating degree days 0 0  
Cooling Degree Days 11 8  
Month to date cooling degree days 215 147  
Year to date cooling degree days 956 657  
Since 1 June cooling degree days 860 599  
Growing Degree Days 25 (Base 50)    
Moisture  
Dew Point 71 °F    
Average Humidity 85    
Maximum Humidity 100    
Minimum Humidity 69    
Precipitation  
Precipitation 0.61 in 0.14 in 3.40 in (1985)
Month to date precipitation 1.55 2.41  
Year to date precipitation 28.50 29.62  
Snow  
Snow 0.00 in 0.00 in 0.00 in ()
Month to date snowfall 0.0 0.0  
Since 1 June snowfall 0.0 0.0  
Since 1 July snowfall 0.0 0.0  
Snow Depth 0.00 in    
Sea Level Pressure  
Sea Level Pressure 30.09 in    
Wind  
Wind Speed 1 mph (SSW)    
Max Wind Speed 14 mph    
Max Gust Speed 18 mph    
Visibility 6 miles    
Events Fog , Rain    
T = Trace of Precipitation, MM = Missing Value Source: NWS Daily Summary

Daily Weather History Graph

Daily Weather History Graph

Search for Another Location

Airport:

Trip Planner

Search our weather history database for the weather conditions in past years. The results will help you decide how hot, cold, wet, or windy it might be!

Date:

Astronomy

Aug. 17, 2010 Rise Set
Actual Time 6:51 AM EDT 8:16 PM EDT
Civil Twilight 6:24 AM EDT 8:43 PM EDT
Nautical Twilight 5:51 AM EDT 9:15 PM EDT
Astronomical Twilight 5:18 AM EDT 9:49 PM EDT
Moon 3:23 PM EDT (8/17) 12:21 AM EDT (8/17)
Length of Visible Light 14h 19m
Length of Day
13h 25m
First Quarter, 59% of the Moon is Illuminated
Aug 17
First Quarter
Aug 24
Full
Sep 1
Last Quarter
Sep 8
New
Sep 15
First Quarter

Hourly Weather History & Observations

Time (EDT) Temp. Heat Index Dew Point Humidity Pressure Visibility Wind Dir Wind Speed Gust Speed Precip Events Conditions
12:54 AM 73.0 °F - 70.0 °F 90% 30.04 in 10.0 mi Calm Calm - N/A   Overcast
1:54 AM 72.0 °F - 70.0 °F 93% 30.03 in 10.0 mi Calm Calm - N/A   Scattered Clouds
2:54 AM 72.0 °F - 70.0 °F 93% 30.02 in 10.0 mi Calm Calm - N/A   Mostly Cloudy
3:15 AM 71.6 °F - 69.8 °F 94% 30.11 in 10.0 mi Calm Calm - N/A   Overcast
3:24 AM 71.6 °F - 69.8 °F 94% 30.11 in 10.0 mi Calm Calm - N/A   Overcast
3:54 AM 70.0 °F - 69.1 °F 97% 30.03 in 8.0 mi Calm Calm - N/A   Mostly Cloudy
4:54 AM 70.0 °F - 69.1 °F 97% 30.02 in 9.0 mi Calm Calm - N/A   Clear
5:17 AM 69.8 °F - 69.8 °F 100% 30.11 in 5.0 mi Calm Calm - N/A   Mostly Cloudy
5:25 AM 69.8 °F - 69.8 °F 100% 30.11 in 2.5 mi Calm Calm - N/A   Mostly Cloudy
5:30 AM 69.8 °F - 69.8 °F 100% 30.11 in 1.8 mi South 3.5 mph - N/A   Scattered Clouds
5:36 AM 69.8 °F - 69.8 °F 100% 30.11 in 1.2 mi Calm Calm - N/A   Mostly Cloudy
5:40 AM 69.8 °F - 69.8 °F 100% 30.11 in 0.8 mi Calm Calm - N/A   Mostly Cloudy
5:52 AM 69.8 °F - 69.8 °F 100% 30.12 in 0.5 mi Calm Calm - N/A Fog Fog
5:54 AM 70.0 °F - 70.0 °F 100% 30.03 in 0.5 mi Calm Calm - N/A Fog Fog
6:11 AM 69.8 °F - 69.8 °F 100% 30.12 in 1.2 mi Calm Calm - N/A   Overcast
6:17 AM 69.8 °F - 69.8 °F 100% 30.13 in 2.0 mi Calm Calm - N/A   Overcast
6:26 AM 69.8 °F - 69.8 °F 100% 30.13 in 1.0 mi Calm Calm - N/A   Overcast
6:39 AM 69.8 °F - 69.8 °F 100% 30.13 in 1.0 mi Calm Calm - N/A   Overcast
6:54 AM 71.1 °F - 70.0 °F 96% 30.05 in 1.0 mi Calm Calm - N/A   Overcast
7:01 AM 71.6 °F - 69.8 °F 94% 30.13 in 2.0 mi Calm Calm - N/A   Overcast
7:24 AM 71.6 °F - 69.8 °F 94% 30.13 in 3.0 mi Calm Calm - N/A   Overcast
7:54 AM 71.1 °F - 70.0 °F 96% 30.06 in 3.0 mi Calm Calm - N/A   Overcast
8:54 AM 72.0 °F - 71.1 °F 97% 30.06 in 3.0 mi Calm Calm - N/A   Overcast
9:51 AM 73.4 °F - 71.6 °F 94% 30.14 in 6.0 mi South 3.5 mph - N/A   Mostly Cloudy
9:54 AM 73.9 °F - 70.0 °F 87% 30.06 in 6.0 mi Calm Calm - N/A   Mostly Cloudy
10:54 AM 77.0 °F - 70.0 °F 79% 30.07 in 6.0 mi South 3.5 mph - N/A   Haze
11:54 AM 80.1 °F 83.2 °F 70.0 °F 71% 30.06 in 10.0 mi WSW 3.5 mph - N/A   Mostly Cloudy
12:54 PM 81.0 °F 84.4 °F 70.0 °F 69% 30.05 in 10.0 mi Variable 3.5 mph - N/A   Mostly Cloudy
1:13 PM 75.2 °F - 71.6 °F 89% 30.14 in 2.5 mi SW 8.1 mph 18.4 mph 0.00 in Rain Heavy Rain
1:16 PM 73.4 °F - 71.6 °F 94% 30.14 in 1.2 mi SW 13.8 mph 18.4 mph 0.04 in Rain Heavy Rain
1:22 PM 73.4 °F - 71.6 °F 94% 30.14 in 0.5 mi SW 6.9 mph 17.3 mph 0.20 in Fog , Rain Heavy Rain
1:34 PM 73.4 °F - 69.8 °F 88% 30.13 in 1.2 mi Calm Calm - 0.47 in Rain Rain
1:37 PM 73.4 °F - 71.6 °F 94% 30.13 in 2.5 mi Calm Calm - 0.47 in Rain Light Rain
1:44 PM 75.2 °F - 71.6 °F 89% 30.13 in 10.0 mi Calm Calm - 0.47 in Rain Light Rain
1:54 PM 77.0 °F - 73.0 °F 88% 30.05 in 10.0 mi SSE 4.6 mph - 0.47 in   Mostly Cloudy
2:54 PM 77.0 °F - 71.1 °F 82% 30.03 in 8.0 mi South 9.2 mph - N/A   Mostly Cloudy
3:11 PM 75.2 °F - 71.6 °F 89% 30.11 in 2.0 mi SSE 8.1 mph - 0.03 in Rain Heavy Rain
3:23 PM 75.2 °F - 73.4 °F 94% 30.11 in 5.0 mi South 5.8 mph - 0.06 in Rain Rain
3:54 PM 75.0 °F - 73.0 °F 94% 30.03 in 6.0 mi South 6.9 mph - 0.06 in   Mostly Cloudy
4:21 PM 73.4 °F - 73.4 °F 100% 30.11 in 10.0 mi South 3.5 mph - 0.02 in Rain Light Rain
4:54 PM 75.0 °F - 73.0 °F 94% 30.02 in 10.0 mi Calm Calm - 0.02 in   Scattered Clouds
5:54 PM 75.9 °F - 72.0 °F 87% 30.02 in 8.0 mi NNW 3.5 mph - N/A   Overcast
6:54 PM 77.0 °F - 73.0 °F 88% 30.04 in 10.0 mi Calm Calm - 0.00 in   Overcast
7:51 PM 75.2 °F - 73.4 °F 94% 30.12 in 10.0 mi WNW 3.5 mph - 0.00 in Rain Light Rain
7:54 PM 75.9 °F - 73.9 °F 94% 30.04 in 7.0 mi Calm Calm - 0.00 in Rain Light Rain
8:06 PM 75.2 °F - 73.4 °F 94% 30.12 in 4.0 mi Calm Calm - 0.02 in Rain Light Rain
8:19 PM 75.2 °F - 73.4 °F 94% 30.12 in 5.0 mi Calm Calm - 0.03 in Rain Light Rain
8:54 PM - - - N/A% 30.12 in 10.0 mi Calm Calm - 0.05 in Rain Light Rain
9:54 PM 73.9 °F - 72.0 °F 93% 30.07 in 10.0 mi Calm Calm - 0.00 in   Clear
10:54 PM 73.0 °F - 72.0 °F 96% 30.08 in 7.0 mi Calm Calm - 0.00 in Rain Light Rain
11:54 PM 72.0 °F - 71.1 °F 97% 30.06 in 10.0 mi Calm Calm - 0.01 in   Clear